Location: Buffign�court
(47.8126°N, 6.0176°E)
Time: 15:06:12
(UTC+00:00)

BREEZE-M DEB (TANK) - Pass Details

Date: 16 June 2021
Orbit: 320 x 14772 km, 49.5° (Epoch: 01 August)

Event Time Altitude Azimuth Distance (km) Brightness Sun altitude
Rises 20:35:27 0° 224° (SW) 2,053 5.7 -8.0°
Reaches altitude 10° 20:37:02 10° 212° (SSW) 1,280 4.5 -8.2°
Maximum altitude 20:39:15 35° 142° (SE) 723 2.9 -8.4°
Drops below altitude 10° 20:43:20 10° 75° (ENE) 2,374 5.8 -8.9°
Sets 20:47:35 0° 68° (ENE) 4,438 7.2 -9.3°
